Terminal Aerodrome Forecast
Issued by NWS Topeka, KS

Home | Current Version | Previous Version | Text Only | Print | Product List | Glossary Off
Versions: 1 2 3 4 5 6 7 8 9 10 11 12 13

000
FTUS43 KTOP 302300
TAFTOP
TAF
KTOP 302325Z 3100/3124 33011KT P6SM SKC
     FM310600 35013G22KT P6SM BKN025
     FM311400 01014G26KT P6SM SKC=

USA.gov is the U.S. government's official web portal to all federal, state and local government web resources and services.